Погода в Ермолином

Россия / Ивановская область     57°07′38″N   41°16′05″E
темп.,
°C
ветер,
м/с
пор.,
м/с
влажн.,
%
обл.,
%
осадки,
мм/ч
давл.,
гПа
погр.,
м
16 мая, вс
вс1600:00+13ю310950 0.0 1010224
03:00+12ю38962 0.0 1010176
06:00+14ююз411910 0.0 1011374
09:00+18юз69710 0.0 1012832
12:00+21юз68570 0.0 10121590
15:00+22юз695612 0.0 10122120
18:00+20зюз596836 0.7 1012518
21:00+14юз34860 0.9 101365
17 мая, пн
пн1700:00+13юз36915 0.0 1014100
03:00+12юз33945 0.0 101644
06:00+14зюз1290100 0.0 101783
09:00+19ююв117330 0.0 1017458
12:00+22ююв235740 0.0 10171151
15:00+24вюв235238 0.0 10161307
18:00+22всв356942 0.0 1015229
21:00+17вюв41086100 0.3 1015174
18 мая, вт
вт1800:00+15вюв4992100 0.7 1015149
03:00+15юв3793100 0.7 1015117
06:00+16юв4987100 0.0 1015183
09:00+21юв586562 0.0 1015333
12:00+25юв695520 0.0 1014920
15:00+27юв58465 0.0 10131431
18:00+23юв5126199 0.0 1013417
21:00+18юв413778 0.0 1013233
19 мая, ср
ср1900:00+17юв412826 0.0 1013218
03:00+15юв4138522 0.0 1013212
06:00+17юв616735 0.0 1013357
09:00+23юв6146069 0.0 1012598
12:00+26юв713501 0.0 10121074
15:00+27юв712472 0.0 10111545
18:00+24вюв613605 0.0 1011557
21:00+20вюв6167193 0.0 1010464
20 мая, чт
чт2000:00+17вюв238994 0.8 101038
03:00+15вюв411875 0.8 1009224
06:00+17юв5138676 0.0 1009468
09:00+21ююв7116720 0.0 10091062
12:00+21ююв71073100 0.3 10081312
15:00+21ююв7116776 1.1 10091490
18:00+18ююз61174100 0.8 1009862
21:00+15ююз410835 0.9 1010308